パンスターズ彗星

466P/PanSTARRS (2015)

English version
Home page
Updated on July 27, 2023

---------------------------------------------------------------------

・ プロフィール

符号 466P/2015 T3
発見日 2015年10月13日
発見光度 20.9等
発見者 Pan-STARRS 1 telescope (Haleakala)

・ 写真集

・ 軌道要素

                    Epoch = 2015 Feb. 27.0 TT
     T = 2015 Mar. 10.15371 TT        Peri. = 196.60342
     e = 0.4650167                    Node  = 119.89850 2000.0
     q = 2.1694469 AU                 Incl. =  12.22038
       a =  4.0551675 AU   n = 0.12069544   P =   8.17 years

・ 光度変化

        m1 = 14.0 + 5 logΔ + 10.0 log r

---------------------------------------------------------------------

軌道要素は、CBET 5277に掲載されたものです。
光度グラフはComet for Windowsで作成したものです。

---------------------------------------------------------------------

Copyright(C) Seiichi Yoshida (comet@aerith.net). All rights reserved.